[[{"header":{"parameterUnit":"m.s-1","parameterCategory":1,"la1":30.2991,"la2":30.254,"lo1":-89.0895,"lo2":-89.0444,"dy":0.0017,"dx":0.0017,"nx":28,"ny":28,"refTime":"2025-08-25T21:00:00:Z","depth":0,"parameterNumber":2,"parameterNumberName":"U-component_of_WINDS"},"data":[0,0,0,0,0,0,0,0,0,0,0,0,0,0,0,0,0,0,0,0,0,0,0,0,0,0,0,0,0,0,0,0,0,0,0,0,0,0,0,0,0,0,0,0,0,0,0,0,0,0,0,0,0,0,0,0,0,0,-1.5843,-1.5843,0,-1.5851,-1.5851,-1.5852,-1.58,-1.5799,-1.5797,-1.5796,-1.5807,-1.5809,-1.5811,0,0,0,0,0,0,0,0,0,0,0,0,0,-1.5783,-1.5784,-1.5843,-1.5843,-1.5843,-1.5851,-1.5851,-1.5852,-1.58,-1.5799,-1.5797,-1.5795,-1.5807,-1.5809,-1.5811,0,0,0,0,0,0,0,0,0,0,0,0,0,-1.5802,-1.5785,-1.5843,-1.5818,-1.5816,-1.5851,-1.5851,-1.5852,-1.5801,-1.5798,-1.5796,-1.5794,-1.5806,-1.5809,-1.5811,-1.5871,0,0,-1.5819,-1.582,0,0,0,0,0,0,0,0,-1.5801,-1.5804,-1.5822,-1.582,-1.5818,-1.5822,-1.5834,-1.5858,-1.5801,-1.5807,-1.5796,-1.5793,-1.5814,-1.5816,-1.5823,-1.5871,-1.5872,-1.5819,-1.5821,-1.5822,-1.5822,0,0,0,0,0,0,0,-1.58,-1.5804,-1.5846,-1.5822,-1.582,-1.5807,-1.5807,-1.5839,-1.5823,-1.5806,-1.5802,-1.5804,-1.5813,-1.582,-1.5822,-1.5872,-1.5819,-1.5821,-1.5823,-1.5824,-1.5969,-1.5971,0,0,0,0,0,0,-1.5801,-1.5803,-1.5846,-1.5846,-1.5804,-1.581,-1.581,-1.5823,-1.5822,-1.582,-1.5806,-1.5801,-1.5817,-1.582,-1.5823,-1.5891,-1.5822,-1.5824,-1.5825,-1.5966,-1.5969,-1.5972,0,0,0,0,0,0,-1.58,-1.5806,-1.5845,-1.5824,-1.5828,-1.5813,-1.5828,-1.5824,-1.5832,-1.5822,-1.5819,-1.5816,-1.5815,-1.5819,-1.5859,-1.5891,-1.5825,-1.5827,-1.5963,-1.5967,-1.597,-1.603,0,0,0,0,0,0,-1.5799,-1.5806,-1.5828,-1.5824,-1.5829,-1.5881,-1.583,-1.5826,-1.5836,-1.583,-1.5831,-1.5829,-1.5814,-1.5855,-1.5861,-1.5893,-1.5829,-1.596,-1.5965,-1.5969,-1.6025,-1.6035,-1.6044,0,0,0,0,0,-1.5797,-1.5846,-1.583,-1.5835,-1.5857,-1.5883,-1.5886,-1.5867,-1.5839,-1.5861,-1.5855,-1.5829,-1.5887,-1.586,-1.5866,-1.59,-1.5958,-1.5964,-1.5969,-1.6021,-1.6034,-1.6044,0,0,0,0,0,0,-1.5855,-1.5845,-1.5827,-1.5876,-1.5881,-1.5875,-1.5902,-1.5881,-1.5894,-1.5888,-1.5865,-1.5865,-1.5909,-1.5908,-1.5878,-1.5956,-1.5918,-1.5924,-1.5955,-1.5967,-1.5976,-1.5975,-1.5831,0,0,0,0,0,-1.5873,-1.5895,-1.5885,-1.593,-1.5933,-1.5917,-1.5928,-1.5912,-1.5917,-1.5919,-1.5915,-1.5921,-1.594,-1.5954,-1.5971,-1.6025,-1.6024,-1.6051,-1.606,-1.6068,-1.6074,-1.6101,-1.6113,-1.5989,-1.5989,-1.5989,0,0,-1.5912,-1.5909,-1.5925,-1.5941,-1.5943,-1.5966,-1.5919,-1.5947,-1.5963,-1.5923,-1.596,-1.5957,-1.5962,-1.6009,-1.6029,-1.601,-1.6108,-1.6075,-1.6081,-1.6083,-1.6108,-1.612,-1.613,-1.5992,-1.5992,-1.5991,0,0,-1.5994,-1.5994,-1.603,-1.6033,-1.6035,-1.6024,-1.6033,-1.603,-1.6026,-1.6062,-1.6032,-1.6052,-1.6086,-1.609,-1.6097,-1.6178,-1.6154,-1.6184,-1.6233,-1.626,-1.627,-1.6278,-1.6306,-1.6317,-1.619,-1.619,-1.6191,0,-1.6042,-1.6075,-1.6052,-1.608,-1.6088,-1.6051,-1.6087,-1.6091,-1.61,-1.6106,-1.6084,-1.6124,-1.6125,-1.6171,-1.6191,-1.6198,-1.6206,-1.6184,-1.627,-1.6278,-1.6286,-1.6313,-1.6323,-1.6194,-1.6194,-1.6193,-1.6193,0,-1.6134,-1.6157,-1.6186,-1.6193,-1.6204,-1.6237,-1.6218,-1.6232,-1.6215,-1.6207,-1.6243,-1.6242,-1.6258,-1.6268,-1.6252,-1.6312,-1.6299,-1.6274,-1.6234,-1.6302,-1.6326,-1.6336,-1.6199,-1.6198,-1.6197,-1.6196,0,0,-1.6255,-1.6247,-1.6258,-1.626,-1.6259,-1.6277,-1.6307,-1.6321,-1.6333,-1.634,-1.6364,-1.6393,-1.6368,-1.6376,-1.636,-1.6384,-1.6447,-1.6355,-1.6355,-1.6372,-1.6511,-1.653,-1.6543,-1.6431,-1.6433,-1.6435,-1.6511,0,-1.6334,-1.6384,-1.6363,-1.6415,-1.6436,-1.64,-1.6426,-1.6429,-1.6421,-1.6438,-1.6429,-1.6449,-1.6416,-1.642,-1.6442,-1.6435,-1.6475,-1.6429,-1.6454,-1.6455,-1.6454,-1.6556,-1.6576,-1.6648,-1.652,-1.6522,-1.6523,0,-1.6434,-1.6443,-1.6497,-1.649,-1.6498,-1.6522,-1.6532,-1.6548,-1.655,-1.6543,-1.655,-1.6529,-1.6558,-1.6518,-1.6557,-1.6527,-1.6535,-1.6533,-1.6535,-1.6537,-1.6493,-1.656,-1.6671,-1.6681,-1.6538,-1.6537,-1.6536,0,-1.6516,-1.6541,-1.6576,-1.6579,-1.6573,-1.659,-1.6589,-1.6588,-1.6597,-1.6606,-1.6612,-1.6625,-1.6632,-1.6642,-1.6625,-1.6597,-1.6666,-1.6625,-1.6661,-1.6661,-1.6677,-1.6677,-1.6791,-1.6684,-1.6683,-1.6683,-1.6683,0,-1.6607,-1.6641,-1.6612,-1.6634,-1.6671,-1.6646,-1.6684,-1.6678,-1.6678,-1.6698,-1.6668,-1.6687,-1.6663,-1.668,-1.6667,-1.6701,-1.6704,-1.6699,-1.6695,-1.6702,-1.6702,-1.6707,-1.6702,-1.6686,-1.6685,-1.6685,-1.6684,0,-1.6704,-1.6687,-1.6722,-1.6713,-1.6711,-1.6739,-1.673,-1.675,-1.6739,-1.6765,-1.677,-1.6753,-1.6772,-1.6755,-1.6773,-1.6764,-1.6809,-1.6798,-1.6808,-1.6805,-1.6841,-1.6838,-1.6963,-1.6978,-1.6861,-1.6862,-1.6863,0,-1.6764,-1.6789,-1.6781,-1.6791,-1.6791,-1.6809,-1.6817,-1.6793,-1.6803,-1.6806,-1.6825,-1.6841,-1.6852,-1.6883,-1.6873,-1.6887,-1.6875,-1.6918,-1.6877,-1.6883,-1.6875,-1.6874,-1.6876,-1.6927,-1.6928,-1.6929,-1.693,0,-1.687,-1.686,-1.6872,-1.6882,-1.6892,-1.6899,-1.6903,-1.6914,-1.6889,-1.6902,-1.6919,-1.6928,-1.6945,-1.6961,-1.6971,-1.6969,-1.6946,-1.6943,-1.6952,-1.6959,-1.6963,-1.696,-1.6831,-1.694,-1.6939,-1.6939,-1.6938,-1.6938,-1.695,-1.697,-1.6967,-1.6982,-1.6982,-1.6986,-1.7004,-1.6994,-1.7008,-1.7019,-1.7004,-1.7026,-1.7026,-1.7036,-1.7037,-1.7054,-1.7036,-1.7049,-1.7052,-1.7056,-1.7061,-1.696,-1.7056,-1.7055,-1.7055,-1.7055,-1.7055,0,-1.7055,-1.705,-1.7064,-1.707,-1.7081,-1.7056,-1.7059,-1.7071,-1.709,-1.7091,-1.7101,-1.7121,-1.7136,-1.7126,-1.7138,-1.7153,-1.7143,-1.7158,-1.7156,-1.7156,-1.7076,-1.7067,-1.7166,-1.7166,-1.7166,-1.7166,-1.7166,-1.7166,-1.7111,-1.7142,-1.7131,-1.7163,-1.7158,-1.7178,-1.7181,-1.7185,-1.7185,-1.7208,-1.7219,-1.7212,-1.7209,-1.7221,-1.7233,-1.7229,-1.7235,-1.7254,-1.7247,-1.7173,-1.7162,-1.7151,-1.7143,-1.7255,-1.7256,-1.7325,-1.7326,-1.7326]},{"header":{"parameterUnit":"m.s-1","parameterCategory":1,"la1":30.2991,"la2":30.254,"lo1":-89.0895,"lo2":-89.0444,"dy":0.0017,"dx":0.0017,"nx":28,"ny":28,"refTime":"2025-08-25T21:00:00:Z","depth":0,"parameterNumber":3,"parameterNumberName":"V-component_of_WINDS"},"data":[0,0,0,0,0,0,0,0,0,0,0,0,0,0,0,0,0,0,0,0,0,0,0,0,0,0,0,0,0,0,0,0,0,0,0,0,0,0,0,0,0,0,0,0,0,0,0,0,0,0,0,0,0,0,0,0,0,0,1.0897,1.0896,0,1.0771,1.077,1.0768,1.068,1.0679,1.0678,1.0678,1.0544,1.0541,1.0538,0,0,0,0,0,0,0,0,0,0,0,0,0,1.1059,1.1056,1.0898,1.0896,1.0894,1.0772,1.077,1.0768,1.068,1.0679,1.0678,1.0677,1.0545,1.0541,1.0538,0,0,0,0,0,0,0,0,0,0,0,0,0,1.0966,1.1056,1.0898,1.0836,1.0829,1.0772,1.077,1.0768,1.068,1.0679,1.0678,1.0677,1.0546,1.0542,1.0537,1.0531,0,0,1.0524,1.0522,0,0,0,0,0,0,0,0,1.0972,1.0961,1.0846,1.084,1.0832,1.074,1.0778,1.0688,1.068,1.0736,1.0678,1.0676,1.061,1.06,1.0579,1.0525,1.0519,1.0524,1.0521,1.0519,1.0518,0,0,0,0,0,0,0,1.0978,1.0965,1.0847,1.0845,1.0836,1.0813,1.0799,1.076,1.068,1.0731,1.0725,1.0711,1.0606,1.0583,1.0575,1.0517,1.0524,1.052,1.0517,1.0516,1.0452,1.0453,0,0,0,0,0,0,1.0995,1.0971,1.0851,1.0844,1.0901,1.0811,1.0795,1.0771,1.068,1.0666,1.0712,1.0708,1.0591,1.058,1.057,1.0556,1.0519,1.0515,1.0513,1.0451,1.0452,1.0453,0,0,0,0,0,0,1.0999,1.0985,1.0856,1.0906,1.0888,1.0809,1.0783,1.0769,1.0746,1.0666,1.0651,1.0704,1.059,1.0576,1.0542,1.055,1.0513,1.0509,1.045,1.0451,1.0453,1.0529,0,0,0,0,0,0,1.1004,1.0987,1.0984,1.0906,1.0885,1.0832,1.0783,1.0767,1.0739,1.0732,1.0654,1.064,1.0588,1.0549,1.0537,1.0544,1.0506,1.0449,1.0451,1.0452,1.0526,1.0533,1.054,0,0,0,0,0,1.101,1.101,1.0985,1.0971,1.088,1.0832,1.082,1.0761,1.074,1.0736,1.0685,1.0643,1.0552,1.0546,1.0532,1.0538,1.0448,1.045,1.0452,1.0523,1.0532,1.054,0,0,0,0,0,0,1.1088,1.0998,1.0969,1.0944,1.0897,1.0818,1.0811,1.0773,1.0729,1.0724,1.0651,1.0634,1.0608,1.0569,1.0564,1.0527,1.0495,1.0494,1.0553,1.0561,1.0568,1.0577,1.0502,0,0,0,0,0,1.1103,1.1073,1.0995,1.0981,1.0959,1.0889,1.0866,1.0825,1.0772,1.0751,1.0697,1.0647,1.0607,1.0582,1.0541,1.052,1.0502,1.0517,1.0524,1.0531,1.053,1.0517,1.0523,1.046,1.046,1.046,0,0,1.1133,1.108,1.1064,1.0995,1.0954,1.0923,1.0873,1.0842,1.0818,1.0746,1.0711,1.067,1.0609,1.0582,1.0567,1.0549,1.0544,1.0533,1.0539,1.0535,1.052,1.0526,1.0532,1.0462,1.0461,1.0461,0,0,1.117,1.1128,1.1111,1.1071,1.101,1.0964,1.0961,1.0887,1.0858,1.0822,1.0768,1.0738,1.0671,1.063,1.06,1.0625,1.0584,1.0614,1.065,1.0638,1.0643,1.0647,1.0656,1.066,1.0614,1.0615,1.0615,0,1.1214,1.1167,1.1107,1.108,1.1051,1.0987,1.0969,1.0933,1.0861,1.0842,1.0823,1.0738,1.0692,1.0655,1.0662,1.064,1.0633,1.0621,1.0647,1.0651,1.0653,1.0661,1.0665,1.0619,1.0618,1.0618,1.0617,0,1.1224,1.1192,1.1186,1.112,1.1091,1.1069,1.1005,1.0982,1.0944,1.09,1.0865,1.0808,1.0755,1.0743,1.0705,1.0701,1.0692,1.0661,1.0627,1.0665,1.067,1.0673,1.0624,1.0623,1.0622,1.0621,0,0,1.1305,1.1209,1.1207,1.1177,1.1106,1.108,1.1055,1.1005,1.0987,1.094,1.0916,1.0862,1.0834,1.0801,1.0758,1.0748,1.0772,1.0718,1.0715,1.073,1.0763,1.0786,1.0791,1.0745,1.0745,1.0745,1.0768,0,1.1332,1.1285,1.1231,1.1203,1.1173,1.1113,1.1091,1.1045,1.1004,1.0972,1.0926,1.0889,1.0854,1.0834,1.0821,1.0772,1.0777,1.0769,1.0721,1.0721,1.0738,1.0793,1.0817,1.0841,1.077,1.0771,1.0771,0,1.1355,1.1314,1.1283,1.1216,1.1202,1.1184,1.1134,1.1104,1.1051,1.1021,1.0986,1.0941,1.0911,1.0882,1.084,1.0836,1.0814,1.0786,1.0786,1.0778,1.0747,1.0787,1.0848,1.0851,1.0774,1.0774,1.0773,0,1.1418,1.1354,1.1328,1.1304,1.1225,1.1214,1.118,1.1126,1.1099,1.1056,1.1038,1.0991,1.0965,1.0929,1.0872,1.0857,1.0836,1.0803,1.081,1.0812,1.0807,1.0808,1.0865,1.0795,1.0795,1.0795,1.0795,0,1.1452,1.1436,1.1355,1.1338,1.1318,1.1257,1.1238,1.1199,1.1152,1.1126,1.1071,1.1048,1.0975,1.0943,1.0898,1.087,1.0859,1.0834,1.0822,1.0838,1.0842,1.0822,1.0818,1.0796,1.0796,1.0796,1.0795,0,1.1517,1.1463,1.143,1.1359,1.1341,1.133,1.1268,1.125,1.1207,1.1175,1.1164,1.1096,1.1056,1.0997,1.0938,1.0908,1.0887,1.0868,1.0905,1.0898,1.0909,1.0909,1.0954,1.0957,1.0887,1.0887,1.0888,0,1.1543,1.1529,1.1458,1.1438,1.1407,1.1374,1.1348,1.1287,1.1262,1.1201,1.119,1.1147,1.1108,1.1047,1.0991,1.0946,1.0925,1.0945,1.0918,1.0935,1.0925,1.0926,1.0925,1.095,1.0951,1.0952,1.0953,0,1.1593,1.1567,1.1532,1.1488,1.1459,1.1421,1.138,1.1366,1.1297,1.1271,1.123,1.1201,1.1143,1.1099,1.1048,1.1011,1.0971,1.0962,1.0962,1.0977,1.1,1.0988,1.0922,1.0961,1.096,1.096,1.0959,1.0959,1.1638,1.1624,1.1572,1.1535,1.1499,1.1462,1.1442,1.1398,1.1363,1.1312,1.1278,1.124,1.1187,1.1114,1.108,1.1048,1.1031,1.103,1.1029,1.103,1.1036,1.1006,1.1039,1.1038,1.1038,1.1038,1.1038,0,1.1685,1.165,1.1617,1.1563,1.1534,1.15,1.1454,1.1431,1.1399,1.1354,1.1319,1.1272,1.1231,1.1174,1.1128,1.1113,1.1094,1.1103,1.1103,1.1096,1.1054,1.1059,1.112,1.112,1.112,1.112,1.112,1.112,1.1707,1.1681,1.1649,1.1604,1.1568,1.1531,1.1508,1.1474,1.1438,1.139,1.1356,1.132,1.127,1.122,1.1181,1.1165,1.115,1.1166,1.1144,1.1106,1.1098,1.1091,1.1095,1.1163,1.1163,1.1188,1.1188,1.1188]}]]